Flag for Canada Weather past 2 weeks in Moncton, New Brunswick, Canada

Now
61 °F

Partly sunny.


Feels Like: 61 °F
Forecast: 45 / 65 °F
Wind: 23 mph from Northeast

Location: Moncton

Current Time: Aug 29, 2014 at 1:47:43 PM

Latest Report: Aug 29, 2014 at 1:00 PM


Visibility: 15 mi

Pressure: 30.10 "Hg

Humidity: 55%

Dew point: 45 °F

Location of MonctonLocation

Historic Weather in Moncton — Graph

°F

Moncton temperature yesterday

Maximum temperature yesterday: 77 °F (at 2:00 PM)
Minimum temperature yesterday: 59 °F (at 9:00 PM)
Average temperature yesterday: 65 °F

Past Weeks' High & Low Weather Summary

 TemperatureHumidityPressure
High84 °F (Aug 25, 3:00 PM)100% (Aug 16, 2:00 AM)30.17 "Hg (Aug 16, 2:00 AM)
Low46 °F (Aug 24, 6:00 AM)44% (Aug 24, 5:00 PM)29.58 "Hg (Aug 18, 3:00 PM)
Average64 °F82%29.92 "Hg
* Reported Aug 14 1:00 PM — Aug 29 1:00 PM, Moncton, Weather by CustomWeather, © 2014

Note: Actual official high and low records may vary slightly from our data, if they occured in-between our weather recording intervals... More about our weather records

Advertising

Moncton weather history for previous 24 hours

 ConditionsComfort  
Time TempWeatherWind HumidityBarometerVisibility
1:00 PM
Aug 29
61 °FPartly sunny.23 mph55%30.10 "Hg15 mi
12:00 PM61 °FPartly sunny.23 mph55%30.08 "Hg15 mi
11:00 AM61 °FScattered clouds.22 mph59%30.05 "Hg15 mi
10:00 AM61 °FPartly sunny.17 mph63%30.03 "Hg15 mi
9:00 AM55 °FScattered clouds.12 mph88%30.00 "Hg15 mi
8:00 AM52 °FPassing clouds.14 mph88%29.97 "Hg15 mi
7:00 AM50 °FPassing clouds.14 mph88%29.94 "Hg15 mi
6:00 AM50 °FScattered showers. Passing clouds.9 mph94%29.90 "Hg15 mi
5:00 AM52 °FLight rain. Overcast.13 mph94%29.88 "Hg10 mi
4:00 AM54 °FLight rain. Mostly cloudy.15 mph94%29.85 "Hg12 mi
3:00 AM54 °FLight rain. Mostly cloudy.14 mph94%29.83 "Hg12 mi
2:51 AM54 °FLight rain. Mostly cloudy.15 mph100%29.82 "Hg10 mi
2:00 AM55 °FLight rain. Overcast.12 mph94%29.81 "Hg10 mi
1:00 AM55 °FLight rain. Mostly cloudy.17 mph100%29.80 "Hg8 mi
12:00 AM57 °FLight rain. Fog.20 mph94%29.77 "Hg5 mi
11:00 PM
Aug 28
59 °FDrizzle. Mostly cloudy.23 mph88%29.74 "Hg8 mi
10:00 PM59 °FLight rain. Mostly cloudy.10 mph94%29.73 "Hg8 mi
9:00 PM59 °FDrizzle. Mostly cloudy.16 mph94%29.71 "Hg7 mi
8:00 PM61 °FSprinkles. Fog.15 mph94%29.67 "Hg6 mi
7:00 PM64 °FSprinkles. Broken clouds.14 mph88%29.66 "Hg12 mi
6:49 PM64 °FSprinkles. Partly sunny.12 mph88%29.66 "Hg15 mi
6:00 PM66 °FSprinkles. Broken clouds.10 mph88%29.65 "Hg15 mi
5:00 PM68 °FSprinkles. Partly sunny.10 mph88%29.65 "Hg15 mi
4:00 PM64 °FPartly sunny.10 mph88%29.64 "Hg15 mi
3:00 PM70 °FSprinkles. Partly sunny.13 mph78%29.64 "Hg15 mi
2:48 PM70 °FSprinkles. Partly sunny.12 mph78%29.64 "Hg15 mi
2:00 PM77 °FPartly sunny.8 mph57%29.64 "Hg15 mi
1:00 PM75 °FPartly sunny.13 mph61%29.66 "Hg15 mi
Weather by CustomWeather, © 2014

See weather overviewHow to use our weather pages